| time (UTC) | temp F | wind direction | speed knots | gust knots | rain 1hr in | rain 24hr in | rain mn in | humidity % | barometer mb |
| 20260505195009 | 83 | 255 | 2.6 | 8.7 | 0.00 | 0.00 | 0.00 | 31 | 1008.2 |
| 20260505194519 | 83 | 225 | 2.6 | 8.7 | 0.00 | 0.00 | 0.00 | 32 | 1008.3 |
| 20260505194007 | 83 | 252 | 1.7 | 7.8 | 0.00 | 0.00 | 0.00 | 31 | 1008.4 |
| 20260505193507 | 83 | 250 | 3.5 | 7.8 | 0.00 | 0.00 | 0.00 | 30 | 1008.4 |
| 20260505193017 | 83 | 251 | 1.7 | 5.2 | 0.00 | 0.00 | 0.00 | 32 | 1008.5 |
| 20260505192506 | 83 | 254 | 1.7 | 5.2 | 0.00 | 0.00 | 0.00 | 31 | 1008.5 |
| 20260505192006 | 83 | 258 | 1.7 | 5.2 | 0.00 | 0.00 | 0.00 | 32 | 1008.6 |
| 20260505191525 | 83 | 233 | 2.6 | 5.2 | 0.00 | 0.00 | 0.00 | 32 | 1008.6 |
| 20260505191003 | 83 | 271 | 0.9 | 4.3 | 0.00 | 0.00 | 0.00 | 33 | 1008.6 |
| 20260505190502 | 83 | 271 | 2.6 | 7.8 | 0.00 | 0.00 | 0.00 | 32 | 1008.6 |
| 20260505190008 | 82 | 262 | 1.7 | 8.7 | 0.00 | 0.00 | 0.00 | 31 | 1008.8 |
| 20260505185503 | 83 | 202 | 3.5 | 8.7 | 0.00 | 0.00 | 0.00 | 31 | 1008.9 |
| 20260505185007 | 83 | 262 | 1.7 | 7.0 | 0.00 | 0.00 | 0.00 | 34 | 1009.0 |
| 20260505184522 | 82 | 247 | 2.6 | 7.0 | 0.00 | 0.00 | 0.00 | 34 | 1009.1 |
| 20260505184008 | 82 | 239 | 2.6 | 6.1 | 0.00 | 0.00 | 0.00 | 34 | 1009.2 |
| 20260505183505 | 82 | 250 | 1.7 | 6.1 | 0.00 | 0.00 | 0.00 | 34 | 1009.2 |
| 20260505183021 | 82 | 228 | 1.7 | 5.2 | 0.00 | 0.00 | 0.00 | 33 | 1009.4 |
| 20260505182506 | 82 | 228 | 1.7 | 4.3 | 0.00 | 0.00 | 0.00 | 35 | 1009.3 |
| 20260505182012 | 82 | 240 | 1.7 | 4.3 | 0.00 | 0.00 | 0.00 | 36 | 1009.4 |
| 20260505181504 | 82 | 234 | 1.7 | 4.3 | 0.00 | 0.00 | 0.00 | 37 | 1009.4 |
| 20260505181004 | 82 | 259 | 1.7 | 4.3 | 0.00 | 0.00 | 0.00 | 36 | 1009.5 |
| 20260505180504 | 82 | 264 | 1.7 | 4.3 | 0.00 | 0.00 | 0.00 | 35 | 1009.5 |
| 20260505180007 | 82 | 277 | 1.7 | 5.2 | 0.00 | 0.00 | 0.00 | 38 | 1009.6 |
| 20260505175503 | 81 | 252 | 1.7 | 5.2 | 0.00 | 0.00 | 0.00 | 37 | 1009.5 |
| 20260505175003 | 81 | 251 | 0.9 | 5.2 | 0.00 | 0.00 | 0.00 | 39 | 1009.7 |
| 20260505174508 | 81 | 261 | 1.7 | 5.2 | 0.00 | 0.00 | 0.00 | 37 | 1009.7 |
| 20260505174006 | 81 | 268 | 1.7 | 4.3 | 0.00 | 0.00 | 0.00 | 38 | 1009.9 |
| 20260505173503 | 81 | 247 | 1.7 | 4.3 | 0.00 | 0.00 | 0.00 | 38 | 1009.8 |
| 20260505173016 | 80 | 263 | 0.9 | 4.3 | 0.00 | 0.00 | 0.00 | 40 | 1010.0 |
| 20260505172506 | 80 | 270 | 2.6 | 4.3 | 0.00 | 0.00 | 0.00 | 38 | 1010.0 |
| 20260505172010 | 80 | 269 | 1.7 | 4.3 | 0.00 | 0.00 | 0.00 | 40 | 1010.0 |
| 20260505171518 | 80 | 243 | 1.7 | 3.5 | 0.00 | 0.00 | 0.00 | 39 | 1010.1 |
| 20260505171010 | 80 | 241 | 1.7 | 3.5 | 0.00 | 0.00 | 0.00 | 40 | 1010.1 |
| 20260505170503 | 80 | 255 | 0.9 | 2.6 | 0.00 | 0.00 | 0.00 | 41 | 1010.0 |
| 20260505170004 | 80 | 259 | 0.9 | 5.2 | 0.00 | 0.00 | 0.00 | 39 | 1010.1 |
| 20260505165504 | 80 | 234 | 0.9 | 5.2 | 0.00 | 0.00 | 0.00 | 42 | 1010.2 |
| 20260505165002 | 80 | 259 | 1.7 | 3.5 | 0.00 | 0.00 | 0.00 | 40 | 1010.2 |
| 20260505164507 | 80 | 256 | 0.9 | 3.5 | 0.00 | 0.00 | 0.00 | 41 | 1010.3 |
| 20260505164003 | 79 | 255 | 0.9 | 5.2 | 0.00 | 0.00 | 0.00 | 41 | 1010.3 |
| 20260505163504 | 79 | 248 | 0.9 | 5.2 | 0.00 | 0.00 | 0.00 | 40 | 1010.3 |
| 20260505163012 | 79 | 269 | 1.7 | 4.3 | 0.00 | 0.00 | 0.00 | 40 | 1010.3 |
| 20260505162505 | 79 | 271 | 1.7 | 4.3 | 0.00 | 0.00 | 0.00 | 40 | 1010.6 |
| 20260505162006 | 79 | 264 | 0.9 | 3.5 | 0.00 | 0.00 | 0.00 | 42 | 1010.6 |
| 20260505161518 | 78 | 220 | 1.7 | 3.5 | 0.00 | 0.00 | 0.00 | 42 | 1010.6 |
| 20260505161005 | 78 | 251 | 1.7 | 3.5 | 0.00 | 0.00 | 0.00 | 41 | 1010.7 |
| 20260505160507 | 78 | 238 | 0.9 | 3.5 | 0.00 | 0.00 | 0.00 | 43 | 1010.8 |
| 20260505153013 | 77 | 257 | 0.9 | 3.5 | 0.00 | 0.00 | 0.00 | 42 | 1011.1 |
| 20260505152504 | 77 | 269 | 1.7 | 3.5 | 0.00 | 0.00 | 0.00 | 43 | 1011.0 |
| 20260505152006 | 77 | 259 | 1.7 | 3.5 | 0.00 | 0.00 | 0.00 | 44 | 1011.0 |
| 20260505151518 | 77 | 266 | 0.9 | 2.6 | 0.00 | 0.00 | 0.00 | 45 | 1010.9 |
| 20260505151007 | 77 | 264 | 0.9 | 2.6 | 0.00 | 0.00 | 0.00 | 46 | 1011.0 |
| 20260505150508 | 77 | 236 | 0.9 | 2.6 | 0.00 | 0.00 | 0.00 | 44 | 1011.0 |
| 20260505140504 | 73 | 249 | 1.7 | 4.3 | 0.00 | 0.00 | 0.00 | 48 | 1011.5 |
| 20260505125007 | 72 | 269 | 0.0 | 0.9 | 0.00 | 0.00 | 0.00 | 54 | 1011.7 |
| 20260505124520 | 71 | 269 | 0.0 | 1.7 | 0.00 | 0.00 | 0.00 | 60 | 1011.6 |
| 20260505124007 | 70 | 248 | 0.9 | 1.7 | 0.00 | 0.00 | 0.00 | 56 | 1011.7 |
| 20260505123510 | 71 | 274 | 0.0 | 0.9 | 0.00 | 0.00 | 0.00 | 60 | 1011.7 |
| 20260505123023 | 71 | 274 | 0.9 | 0.9 | 0.00 | 0.00 | 0.00 | 57 | 1011.8 |
| 20260505122507 | 70 | 274 | 0.0 | 1.7 | 0.00 | 0.00 | 0.00 | 61 | 1011.8 |
| 20260505122009 | 70 | 273 | 0.0 | 1.7 | 0.00 | 0.00 | 0.00 | 59 | 1011.8 |
| 20260505121526 | 70 | 300 | 0.0 | 0.9 | 0.00 | 0.00 | 0.00 | 60 | 1011.9 |
| 20260505121009 | 70 | 300 | 0.0 | 0.9 | 0.00 | 0.00 | 0.00 | 61 | 1011.6 |
| 20260505120511 | 71 | 300 | 0.0 | 0.9 | 0.00 | 0.00 | 0.00 | 56 | 1011.6 |
| 20260505120039 | 71 | 319 | 0.0 | 0.9 | 0.00 | 0.00 | 0.00 | 61 | 1011.6 |
| 20260505115510 | 70 | 319 | 0.0 | 0.9 | 0.00 | 0.00 | 0.00 | 62 | 1011.6 |
| 20260505115005 | 68 | 319 | 0.0 | 0.9 | 0.00 | 0.00 | 0.00 | 68 | 1011.7 |
| 20260505114515 | 65 | 319 | 0.0 | 0.9 | 0.00 | 0.00 | 0.00 | 70 | 1011.7 |
| 20260505114009 | 64 | 319 | 0.0 | 0.9 | 0.00 | 0.00 | 0.00 | 70 | 1011.6 |
| 20260505113509 | 63 | 295 | 0.0 | 0.9 | 0.00 | 0.00 | 0.00 | 71 | 1011.7 |
| 20260505113023 | 62 | 295 | 0.0 | 0.9 | 0.00 | 0.00 | 0.00 | 75 | 1011.7 |
| 20260505112511 | 61 | 295 | 0.0 | 0.9 | 0.00 | 0.00 | 0.00 | 75 | 1011.6 |
| 20260505112007 | 60 | 295 | 0.0 | 0.9 | 0.00 | 0.00 | 0.00 | 78 | 1011.7 |
| 20260505111530 | 58 | 295 | 0.0 | 0.9 | 0.00 | 0.00 | 0.00 | 79 | 1011.7 |
| 20260505111009 | 58 | 295 | 0.0 | 0.0 | 0.00 | 0.00 | 0.00 | 80 | 1011.7 |
| 20260505110510 | 58 | 295 | 0.0 | 0.9 | 0.00 | 0.00 | 0.00 | 79 | 1011.8 |
| 20260505102006 | 57 | 280 | 0.0 | 0.9 | 0.00 | 0.00 | 0.00 | 78 | 1011.6 |
| 20260505101526 | 58 | 275 | 0.0 | 0.9 | 0.00 | 0.00 | 0.00 | 78 | 1011.4 |
| 20260505101009 | 58 | 275 | 0.0 | 0.9 | 0.00 | 0.00 | 0.00 | 77 | 1011.2 |
| 20260505100509 | 58 | 275 | 0.0 | 0.9 | 0.00 | 0.00 | 0.00 | 77 | 1011.0 |
| 20260505100031 | 57 | 275 | 0.0 | 0.9 | 0.00 | 0.00 | 0.00 | 77 | 1010.8 |
| 20260505095507 | 57 | 275 | 0.0 | 0.9 | 0.00 | 0.00 | 0.00 | 77 | 1010.8 |
| 20260505095003 | 57 | 275 | 0.0 | 0.9 | 0.00 | 0.00 | 0.00 | 76 | 1010.8 |
| 20260505094515 | 58 | 275 | 0.0 | 0.9 | 0.00 | 0.00 | 0.00 | 76 | 1010.8 |
| 20260505094003 | 58 | 275 | 0.0 | 0.9 | 0.00 | 0.00 | 0.00 | 76 | 1010.7 |
| 20260505093507 | 58 | 275 | 0.0 | 0.9 | 0.00 | 0.00 | 0.00 | 75 | 1010.5 |
| 20260505093018 | 58 | 275 | 0.0 | 0.9 | 0.00 | 0.00 | 0.00 | 75 | 1010.5 |
| 20260505092509 | 58 | 275 | 0.0 | 0.9 | 0.00 | 0.00 | 0.00 | 75 | 1010.4 |
| 20260505092007 | 58 | 275 | 0.0 | 0.9 | 0.00 | 0.00 | 0.00 | 75 | 1010.5 |
| 20260505091521 | 58 | 275 | 0.0 | 0.9 | 0.00 | 0.00 | 0.00 | 74 | 1010.4 |
| 20260505091008 | 58 | 275 | 0.0 | 0.9 | 0.00 | 0.00 | 0.00 | 74 | 1010.4 |
| 20260505090508 | 58 | 275 | 0.0 | 0.9 | 0.00 | 0.00 | 0.00 | 74 | 1010.5 |
| 20260505090026 | 58 | 275 | 0.0 | 0.9 | 0.00 | 0.00 | 0.00 | 74 | 1010.4 |
| 20260505085507 | 58 | 275 | 0.0 | 0.9 | 0.00 | 0.00 | 0.00 | 75 | 1010.4 |
| 20260505085009 | 58 | 275 | 0.0 | 0.9 | 0.00 | 0.00 | 0.00 | 75 | 1010.4 |
| 20260505084541 | 58 | 275 | 0.0 | 0.9 | 0.00 | 0.00 | 0.00 | 75 | 1010.4 |
| 20260505084003 | 58 | 276 | 0.0 | 0.9 | 0.00 | 0.00 | 0.00 | 75 | 1010.4 |
| 20260505083504 | 57 | 276 | 0.0 | 0.9 | 0.00 | 0.00 | 0.00 | 75 | 1010.4 |
| 20260505083021 | 57 | 275 | 0.0 | 0.9 | 0.00 | 0.00 | 0.00 | 76 | 1010.5 |
| 20260505082507 | 57 | 276 | 0.0 | 0.9 | 0.00 | 0.00 | 0.00 | 76 | 1010.6 |
| 20260505082007 | 57 | 276 | 0.0 | 0.9 | 0.00 | 0.00 | 0.00 | 75 | 1010.6 |
| 20260505081526 | 57 | 276 | 0.0 | 0.9 | 0.00 | 0.00 | 0.00 | 75 | 1010.6 |
| 20260505081009 | 57 | 276 | 0.0 | 0.9 | 0.00 | 0.00 | 0.00 | 74 | 1010.6 |
| 20260505080507 | 57 | 276 | 0.0 | 0.9 | 0.00 | 0.00 | 0.00 | 74 | 1010.6 |
| 20260505080034 | 58 | 276 | 0.0 | 0.9 | 0.00 | 0.00 | 0.00 | 74 | 1010.6 |
| 20260505075514 | 58 | 276 | 0.0 | 0.9 | 0.00 | 0.00 | 0.00 | 74 | 1010.6 |
| 20260505075007 | 58 | 275 | 0.0 | 0.9 | 0.00 | 0.00 | 0.00 | 74 | 1010.6 |
| 20260505074526 | 58 | 275 | 0.0 | 0.9 | 0.00 | 0.00 | 0.00 | 74 | 1010.4 |
| 20260505074007 | 58 | 276 | 0.0 | 0.9 | 0.00 | 0.00 | 0.00 | 73 | 1010.5 |
| 20260505073507 | 58 | 276 | 0.0 | 0.9 | 0.00 | 0.00 | 0.00 | 73 | 1010.5 |
| 20260505073023 | 58 | 276 | 0.0 | 0.9 | 0.00 | 0.00 | 0.00 | 73 | 1010.4 |
| 20260505072503 | 58 | 276 | 0.0 | 0.9 | 0.00 | 0.00 | 0.00 | 72 | 1010.5 |
| 20260505072008 | 58 | 275 | 0.0 | 0.9 | 0.00 | 0.00 | 0.00 | 72 | 1010.4 |
| 20260505071518 | 59 | 275 | 0.0 | 0.9 | 0.00 | 0.00 | 0.00 | 71 | 1010.5 |
| 20260505071008 | 59 | 275 | 0.0 | 0.9 | 0.00 | 0.00 | 0.00 | 71 | 1010.3 |
| 20260505070508 | 59 | 275 | 0.0 | 0.9 | 0.00 | 0.00 | 0.00 | 70 | 1010.3 |
| 20260505070025 | 59 | 275 | 0.0 | 0.9 | 0.00 | 0.00 | 0.00 | 70 | 1010.3 |
| 20260505065508 | 59 | 275 | 0.0 | 0.9 | 0.00 | 0.00 | 0.00 | 70 | 1010.3 |
| 20260505065009 | 59 | 273 | 0.0 | 0.9 | 0.00 | 0.00 | 0.00 | 70 | 1010.4 |
| 20260505064524 | 59 | 273 | 0.0 | 0.9 | 0.00 | 0.00 | 0.00 | 69 | 1010.5 |
| 20260505064011 | 59 | 273 | 0.0 | 0.9 | 0.00 | 0.00 | 0.00 | 69 | 1010.4 |
| 20260505063511 | 59 | 272 | 0.0 | 0.9 | 0.00 | 0.00 | 0.00 | 68 | 1010.4 |
| 20260505063036 | 59 | 271 | 0.0 | 0.9 | 0.00 | 0.00 | 0.00 | 68 | 1010.4 |
| 20260505062511 | 59 | 271 | 0.0 | 0.9 | 0.00 | 0.00 | 0.00 | 68 | 1010.5 |
| 20260505062011 | 59 | 272 | 0.0 | 0.9 | 0.00 | 0.00 | 0.00 | 68 | 1010.5 |
| 20260505061526 | 59 | 272 | 0.0 | 0.9 | 0.00 | 0.00 | 0.00 | 68 | 1010.6 |
| 20260505061008 | 59 | 271 | 0.0 | 0.9 | 0.00 | 0.00 | 0.00 | 67 | 1010.6 |
| 20260505060510 | 59 | 271 | 0.0 | 0.9 | 0.00 | 0.00 | 0.00 | 68 | 1010.6 |
| 20260505060047 | 59 | 271 | 0.0 | 0.9 | 0.00 | 0.00 | 0.00 | 68 | 1010.6 |
| 20260505055509 | 59 | 271 | 0.0 | 0.9 | 0.00 | 0.00 | 0.00 | 68 | 1010.6 |
| 20260505055012 | 58 | 271 | 0.0 | 0.9 | 0.00 | 0.00 | 0.00 | 69 | 1010.6 |
| 20260505054524 | 57 | 271 | 0.0 | 0.9 | 0.00 | 0.00 | 0.00 | 70 | 1010.6 |
| 20260505054017 | 57 | 280 | 0.0 | 0.9 | 0.00 | 0.00 | 0.00 | 71 | 1010.7 |
| 20260505053512 | 56 | 280 | 0.0 | 0.9 | 0.00 | 0.00 | 0.00 | 71 | 1010.8 |
| 20260505053026 | 57 | 280 | 0.0 | 0.9 | 0.00 | 0.00 | 0.00 | 70 | 1010.8 |
| 20260505052511 | 57 | 280 | 0.0 | 0.0 | 0.00 | 0.00 | 0.00 | 68 | 1010.8 |
| 20260505052011 | 58 | 280 | 0.0 | 0.0 | 0.00 | 0.00 | 0.00 | 67 | 1010.7 |
| 20260505051526 | 58 | 280 | 0.0 | 0.9 | 0.00 | 0.00 | 0.00 | 67 | 1010.8 |
| 20260505051007 | 59 | 280 | 0.0 | 0.9 | 0.00 | 0.00 | 0.00 | 66 | 1010.8 |
| 20260505050504 | 59 | 280 | 0.0 | 0.9 | 0.00 | 0.00 | 0.00 | 65 | 1010.8 |
| 20260505041532 | 58 | 257 | 0.0 | 0.9 | 0.00 | 0.00 | 0.00 | 66 | 1010.9 |
| 20260505041012 | 58 | 257 | 0.0 | 0.9 | 0.00 | 0.00 | 0.00 | 65 | 1011.0 |
| 20260505040513 | 59 | 257 | 0.0 | 0.9 | 0.00 | 0.00 | 0.00 | 65 | 1010.9 |
| 20260505040026 | 59 | 257 | 0.0 | 0.9 | 0.00 | 0.00 | 0.00 | 65 | 1011.0 |
| 20260505035509 | 59 | 257 | 0.0 | 0.9 | 0.00 | 0.00 | 0.00 | 65 | 1010.9 |
| 20260505035008 | 59 | 257 | 0.0 | 0.9 | 0.00 | 0.00 | 0.00 | 64 | 1011.0 |
| 20260505034520 | 59 | 257 | 0.0 | 0.9 | 0.00 | 0.00 | 0.00 | 64 | 1011.0 |
| 20260505034013 | 59 | 257 | 0.0 | 0.9 | 0.00 | 0.00 | 0.00 | 64 | 1011.0 |
| 20260505033510 | 59 | 257 | 0.0 | 0.9 | 0.00 | 0.00 | 0.00 | 64 | 1011.0 |
| 20260505033023 | 59 | 257 | 0.0 | 1.7 | 0.00 | 0.00 | 0.00 | 64 | 1011.0 |
| 20260505032510 | 59 | 256 | 0.0 | 1.7 | 0.00 | 0.00 | 0.00 | 63 | 1011.0 |
| 20260505032014 | 59 | 256 | 0.0 | 0.9 | 0.00 | 0.00 | 0.00 | 63 | 1011.1 |
| 20260505031526 | 59 | 256 | 0.0 | 0.9 | 0.00 | 0.00 | 0.00 | 63 | 1011.0 |
| 20260505031009 | 59 | 256 | 0.0 | 0.9 | 0.00 | 0.00 | 0.00 | 62 | 1011.1 |
| 20260505030508 | 60 | 258 | 0.0 | 0.9 | 0.00 | 0.00 | 0.00 | 62 | 1011.1 |
| 20260505030028 | 60 | 259 | 0.0 | 0.9 | 0.00 | 0.00 | 0.00 | 62 | 1011.2 |
| 20260505025511 | 60 | 259 | 0.0 | 0.9 | 0.00 | 0.00 | 0.00 | 61 | 1011.2 |
| 20260505025010 | 60 | 258 | 0.0 | 0.9 | 0.00 | 0.00 | 0.00 | 61 | 1011.2 |
| 20260505024526 | 60 | 258 | 0.0 | 0.9 | 0.00 | 0.00 | 0.00 | 60 | 1011.2 |
| 20260505024009 | 60 | 258 | 0.0 | 0.9 | 0.00 | 0.00 | 0.00 | 60 | 1011.2 |
| 20260505023507 | 60 | 259 | 0.0 | 1.7 | 0.00 | 0.00 | 0.00 | 59 | 1011.3 |
| 20260505023023 | 61 | 259 | 0.0 | 1.7 | 0.00 | 0.00 | 0.00 | 59 | 1011.3 |
| 20260505022509 | 61 | 252 | 0.0 | 0.9 | 0.00 | 0.00 | 0.00 | 58 | 1011.4 |
| 20260505022010 | 61 | 250 | 0.0 | 1.7 | 0.00 | 0.00 | 0.00 | 58 | 1011.4 |
| 20260505021524 | 61 | 252 | 0.9 | 1.7 | 0.00 | 0.00 | 0.00 | 57 | 1011.4 |
| 20260505021010 | 61 | 249 | 0.9 | 1.7 | 0.00 | 0.00 | 0.00 | 57 | 1011.5 |
| 20260505020509 | 61 | 266 | 0.0 | 1.7 | 0.00 | 0.00 | 0.00 | 56 | 1011.5 |
| 20260505020038 | 61 | 261 | 0.0 | 1.7 | 0.00 | 0.00 | 0.00 | 55 | 1011.5 |
| 20260505015508 | 62 | 254 | 0.0 | 1.7 | 0.00 | 0.00 | 0.00 | 55 | 1011.5 |
| 20260505015010 | 62 | 254 | 0.0 | 1.7 | 0.00 | 0.00 | 0.00 | 55 | 1011.4 |
| 20260505014535 | 62 | 254 | 0.0 | 1.7 | 0.00 | 0.00 | 0.00 | 54 | 1011.4 |
| 20260505014009 | 62 | 250 | 0.9 | 1.7 | 0.00 | 0.00 | 0.00 | 54 | 1011.3 |
| 20260505013508 | 62 | 250 | 0.0 | 1.7 | 0.00 | 0.00 | 0.00 | 53 | 1011.3 |
| 20260505013027 | 62 | 252 | 0.0 | 1.7 | 0.00 | 0.00 | 0.00 | 53 | 1011.3 |
| 20260505012510 | 63 | 292 | 0.0 | 0.9 | 0.00 | 0.00 | 0.00 | 52 | 1011.2 |
| 20260505012011 | 63 | 331 | 0.0 | 0.9 | 0.00 | 0.00 | 0.00 | 52 | 1011.0 |
| 20260505011534 | 63 | 254 | 0.0 | 0.9 | 0.00 | 0.00 | 0.00 | 51 | 1011.0 |
| 20260505011002 | 63 | 257 | 0.0 | 1.7 | 0.00 | 0.00 | 0.00 | 51 | 1010.9 |
| 20260505010503 | 64 | 256 | 0.0 | 1.7 | 0.00 | 0.00 | 0.00 | 50 | 1010.9 |
| 20260505010010 | 64 | 255 | 0.9 | 1.7 | 0.00 | 0.00 | 0.00 | 49 | 1010.9 |
| 20260505005503 | 64 | 247 | 0.9 | 1.7 | 0.00 | 0.00 | 0.00 | 48 | 1010.9 |
| 20260505005003 | 64 | 254 | 0.9 | 1.7 | 0.00 | 0.00 | 0.00 | 47 | 1010.8 |
| 20260505004516 | 65 | 256 | 0.9 | 1.7 | 0.00 | 0.00 | 0.00 | 45 | 1010.7 |
| 20260505004006 | 65 | 257 | 0.9 | 0.9 | 0.00 | 0.00 | 0.00 | 42 | 1010.6 |
| 20260505003507 | 66 | 257 | 0.0 | 0.9 | 0.00 | 0.00 | 0.00 | 42 | 1010.6 |
| 20260505003032 | 66 | 257 | 0.0 | 0.9 | 0.00 | 0.00 | 0.00 | 40 | 1010.5 |
| 20260505002509 | 66 | 257 | 0.0 | 0.9 | 0.00 | 0.00 | 0.00 | 40 | 1010.5 |
| 20260505002008 | 67 | 257 | 0.0 | 0.9 | 0.00 | 0.00 | 0.00 | 40 | 1010.4 |
| 20260505001523 | 67 | 257 | 0.0 | 0.9 | 0.00 | 0.00 | 0.00 | 39 | 1010.4 |
| 20260505001008 | 67 | 257 | 0.0 | 0.9 | 0.00 | 0.00 | 0.00 | 39 | 1010.2 |
| 20260505000510 | 67 | 257 | 0.0 | 0.9 | 0.00 | 0.00 | 0.00 | 38 | 1010.1 |
| 20260505000011 | 68 | 257 | 0.0 | 0.9 | 0.00 | 0.00 | 0.00 | 37 | 1010.0 |
| 20260504235503 | 68 | 257 | 0.0 | 0.9 | 0.00 | 0.00 | 0.00 | 37 | 1010.0 |
| 20260504235006 | 69 | 256 | 0.0 | 0.9 | 0.00 | 0.00 | 0.00 | 36 | 1009.9 |
| 20260504234512 | 69 | 257 | 0.0 | 1.7 | 0.00 | 0.00 | 0.00 | 36 | 1009.9 |
| 20260504234007 | 69 | 256 | 0.9 | 1.7 | 0.00 | 0.00 | 0.00 | 36 | 1009.8 |
| 20260504233506 | 69 | 251 | 0.0 | 2.6 | 0.00 | 0.00 | 0.00 | 35 | 1009.8 |
| 20260504233017 | 69 | 265 | 0.0 | 2.6 | 0.00 | 0.00 | 0.00 | 35 | 1009.7 |
| 20260504232510 | 70 | 250 | 0.9 | 1.7 | 0.00 | 0.00 | 0.00 | 35 | 1009.7 |
| 20260504232008 | 70 | 253 | 0.0 | 1.7 | 0.00 | 0.00 | 0.00 | 35 | 1009.7 |
| 20260504231523 | 70 | 244 | 0.9 | 1.7 | 0.00 | 0.00 | 0.00 | 35 | 1009.7 |
| 20260504231007 | 70 | 238 | 0.9 | 1.7 | 0.00 | 0.00 | 0.00 | 34 | 1009.7 |
| 20260504230511 | 70 | 269 | 0.9 | 5.2 | 0.00 | 0.00 | 0.00 | 34 | 1009.6 |
| 20260504230028 | 71 | 269 | 0.9 | 5.2 | 0.00 | 0.00 | 0.00 | 33 | 1009.6 |
| 20260504225509 | 71 | 261 | 0.9 | 4.3 | 0.00 | 0.00 | 0.00 | 33 | 1009.6 |
| 20260504225004 | 71 | 252 | 1.7 | 4.3 | 0.00 | 0.00 | 0.00 | 33 | 1009.5 |
| 20260504224516 | 71 | 229 | 0.9 | 4.3 | 0.00 | 0.00 | 0.00 | 33 | 1009.6 |
| 20260504224004 | 71 | 248 | 1.7 | 2.6 | 0.00 | 0.00 | 0.00 | 33 | 1009.6 |
| 20260504223503 | 72 | 272 | 0.9 | 4.3 | 0.00 | 0.00 | 0.00 | 33 | 1009.5 |
| 20260504223017 | 72 | 255 | 0.9 | 4.3 | 0.00 | 0.00 | 0.00 | 32 | 1009.5 |
| 20260504222508 | 72 | 258 | 0.9 | 3.5 | 0.00 | 0.00 | 0.00 | 32 | 1009.5 |
| 20260504222007 | 73 | 235 | 0.9 | 2.6 | 0.00 | 0.00 | 0.00 | 32 | 1009.6 |
| 20260504221523 | 73 | 257 | 0.9 | 2.6 | 0.00 | 0.00 | 0.00 | 32 | 1009.7 |
| 20260504221009 | 73 | 256 | 0.0 | 2.6 | 0.00 | 0.00 | 0.00 | 32 | 1009.7 |
| 20260504220508 | 73 | 259 | 0.9 | 2.6 | 0.00 | 0.00 | 0.00 | 31 | 1009.7 |
| 20260504220026 | 73 | 267 | 0.9 | 2.6 | 0.00 | 0.00 | 0.00 | 31 | 1009.7 |
| 20260504215509 | 73 | 239 | 0.9 | 2.6 | 0.00 | 0.00 | 0.00 | 32 | 1009.8 |
| 20260504215007 | 73 | 269 | 0.9 | 2.6 | 0.00 | 0.00 | 0.00 | 32 | 1009.7 |
| 20260504214527 | 73 | 214 | 0.9 | 4.3 | 0.00 | 0.00 | 0.00 | 31 | 1009.7 |
| 20260504214013 | 73 | 264 | 2.6 | 4.3 | 0.00 | 0.00 | 0.00 | 30 | 1009.8 |
| 20260504213506 | 73 | 262 | 0.9 | 3.5 | 0.00 | 0.00 | 0.00 | 31 | 1009.8 |
| 20260504213022 | 73 | 262 | 1.7 | 3.5 | 0.00 | 0.00 | 0.00 | 31 | 1009.9 |
| 20260504212503 | 73 | 230 | 0.9 | 3.5 | 0.00 | 0.00 | 0.00 | 31 | 1010.0 |
| 20260504212006 | 73 | 262 | 0.9 | 3.5 | 0.00 | 0.00 | 0.00 | 30 | 1009.9 |
| 20260504211529 | 73 | 246 | 1.7 | 4.3 | 0.00 | 0.00 | 0.00 | 30 | 1009.9 |
| 20260504211007 | 73 | 253 | 1.7 | 4.3 | 0.00 | 0.00 | 0.00 | 30 | 1009.9 |
| 20260504210508 | 73 | 240 | 1.7 | 3.5 | 0.00 | 0.00 | 0.00 | 31 | 1009.9 |
| 20260504210020 | 73 | 250 | 0.9 | 3.5 | 0.00 | 0.00 | 0.00 | 31 | 1009.9 |
| 20260504205508 | 73 | 219 | 1.7 | 2.6 | 0.00 | 0.00 | 0.00 | 31 | 1009.9 |
| 20260504205007 | 73 | 235 | 0.9 | 3.5 | 0.00 | 0.00 | 0.00 | 31 | 1009.9 |
| 20260504204523 | 73 | 264 | 1.7 | 3.5 | 0.00 | 0.00 | 0.00 | 32 | 1010.0 |
| 20260504204007 | 73 | 222 | 1.7 | 4.3 | 0.00 | 0.00 | 0.00 | 30 | 1010.0 |
| 20260504203512 | 73 | 247 | 1.7 | 4.3 | 0.00 | 0.00 | 0.00 | 30 | 1010.0 |
| 20260504203027 | 73 | 253 | 1.7 | 2.6 | 0.00 | 0.00 | 0.00 | 30 | 1009.8 |
| 20260504202504 | 73 | 266 | 0.9 | 5.2 | 0.00 | 0.00 | 0.00 | 31 | 1009.9 |
| 20260504202003 | 72 | 235 | 0.9 | 5.2 | 0.00 | 0.00 | 0.00 | 31 | 1010.0 |
| 20260504201517 | 72 | 237 | 1.7 | 7.0 | 0.00 | 0.00 | 0.00 | 30 | 1010.1 |
| 20260504201006 | 73 | 266 | 1.7 | 7.0 | 0.00 | 0.00 | 0.00 | 30 | 1010.1 |
| 20260504200507 | 72 | 222 | 1.7 | 3.5 | 0.00 | 0.00 | 0.00 | 31 | 1010.0 |
| 20260504200023 | 72 | 238 | 1.7 | 4.3 | 0.00 | 0.00 | 0.00 | 32 | 1010.0 |
| 20260504195506 | 72 | 222 | 1.7 | 4.3 | 0.00 | 0.00 | 0.00 | 31 | 1010.0 |